Time,TemperatureF,DewpointF,PressureIn,WindDirection,WindDirectionDegrees,WindSpeedMPH,WindSpeedGustMPH,Humidity,HourlyPrecipIn,Conditions,Clouds,dailyrainin,SoftwareType,DateUTC
2013-07-16 00:00:00,77.1,71.2,30.18,SE,135,1.0,5.0,82,0.00,,---,0.00,VWS V14.01,2013-07-16 05:00:00,
2013-07-16 00:30:00,77.1,71.5,30.18,ESE,112,1.0,4.0,83,0.00,,---,0.00,VWS V14.01,2013-07-16 05:30:00,
2013-07-16 01:00:00,76.7,71.5,30.18,ESE,112,1.0,6.0,84,0.00,,---,0.00,VWS V14.01,2013-07-16 06:00:00,
2013-07-16 01:30:00,76.3,71.5,30.19,ESE,112,1.0,6.0,85,0.00,,---,0.00,VWS V14.01,2013-07-16 06:30:00,
2013-07-16 02:00:00,76.2,71.4,30.19,ESE,112,1.0,5.0,85,0.00,,---,0.00,VWS V14.01,2013-07-16 07:00:00,
2013-07-16 02:30:00,75.5,71.4,30.19,SE,135,0.0,3.0,87,0.00,,---,0.00,VWS V14.01,2013-07-16 07:30:00,
2013-07-16 03:00:00,74.9,71.1,30.19,ESE,112,0.0,3.0,88,0.00,,---,0.00,VWS V14.01,2013-07-16 08:00:00,
2013-07-16 03:30:00,73.8,70.7,30.19,SE,135,0.0,1.0,90,0.00,,---,0.00,VWS V14.01,2013-07-16 08:30:00,
2013-07-16 04:00:00,73.3,70.5,30.20,SE,135,0.0,1.0,91,0.00,,---,0.00,VWS V14.01,2013-07-16 09:00:00,
2013-07-16 04:30:00,73.3,70.5,30.20,SE,135,0.0,1.0,91,0.00,,---,0.00,VWS V14.01,2013-07-16 09:30:00,
2013-07-16 05:00:00,73.0,70.2,30.20,East,90,0.0,1.0,91,0.00,,---,0.00,VWS V14.01,2013-07-16 10:00:00,
2013-07-16 05:30:00,72.5,70.1,30.20,SE,135,0.0,3.0,92,0.00,,---,0.00,VWS V14.01,2013-07-16 10:30:00,
2013-07-16 06:00:00,72.1,70.0,30.21,SE,135,0.0,3.0,93,0.00,,---,0.00,VWS V14.01,2013-07-16 11:00:00,
2013-07-16 06:30:00,72.0,69.9,30.22,SE,135,0.0,2.0,93,0.00,,---,0.00,VWS V14.01,2013-07-16 11:30:00,
2013-07-16 07:00:00,74.4,71.3,30.22,SE,135,1.0,4.0,90,0.00,,---,0.00,VWS V14.01,2013-07-16 12:00:00,
2013-07-16 07:30:00,75.9,71.8,30.22,SE,135,1.0,5.0,87,0.00,,---,0.00,VWS V14.01,2013-07-16 12:30:00,
2013-07-16 08:00:00,77.2,72.3,30.23,SW,225,1.0,6.0,85,0.00,,---,0.00,VWS V14.01,2013-07-16 13:00:00,
2013-07-16 08:30:00,78.6,72.7,30.23,SW,225,1.0,6.0,82,0.00,,---,0.00,VWS V14.01,2013-07-16 13:30:00,
2013-07-16 09:00:00,80.7,73.2,30.24,SW,225,2.0,5.0,78,0.00,,---,0.00,VWS V14.01,2013-07-16 14:00:00,
2013-07-16 09:30:00,82.9,73.8,30.24,SW,225,2.0,6.0,74,0.00,,---,0.00,VWS V14.01,2013-07-16 14:30:00,
2013-07-16 10:00:00,84.3,73.9,30.24,SW,225,1.0,6.0,71,0.00,,---,0.00,VWS V14.01,2013-07-16 15:00:00,
2013-07-16 10:30:00,85.5,74.2,30.24,SE,135,2.0,8.0,69,0.00,,---,0.00,VWS V14.01,2013-07-16 15:30:00,
2013-07-16 11:00:00,86.5,72.4,30.24,ESE,112,2.0,6.0,63,0.00,,---,0.00,VWS V14.01,2013-07-16 16:00:00,
2013-07-16 11:30:00,87.8,71.7,30.24,SSW,202,2.0,6.0,59,0.00,,---,0.00,VWS V14.01,2013-07-16 16:30:00,
2013-07-16 12:00:00,88.4,72.3,30.24,SE,135,2.0,5.0,59,0.00,,---,0.00,VWS V14.01,2013-07-16 17:00:00,
2013-07-16 12:30:00,88.6,71.4,30.24,SE,135,2.0,7.0,57,0.00,,---,0.00,VWS V14.01,2013-07-16 17:30:00,
2013-07-16 13:00:00,89.0,71.8,30.23,SE,135,3.0,8.0,57,0.00,,---,0.00,VWS V14.01,2013-07-16 18:00:00,
2013-07-16 13:30:00,89.0,72.3,30.23,SE,135,2.0,7.0,58,0.00,,---,0.00,VWS V14.01,2013-07-16 18:30:00,
2013-07-16 14:00:00,90.4,72.1,30.22,East,90,3.0,8.0,55,0.00,,---,0.00,VWS V14.01,2013-07-16 19:00:00,
2013-07-16 14:30:00,90.9,73.0,30.21,East,90,3.0,8.0,56,0.00,,---,0.00,VWS V14.01,2013-07-16 19:30:00,
2013-07-16 15:00:00,92.0,72.4,30.20,ESE,112,3.0,8.0,53,0.00,,---,0.00,VWS V14.01,2013-07-16 20:00:00,
2013-07-16 15:30:00,91.0,72.6,30.20,ESE,112,4.0,10.0,55,0.00,,---,0.00,VWS V14.01,2013-07-16 20:30:00,
2013-07-16 16:00:00,91.5,73.6,30.20,SE,135,3.0,9.0,56,0.00,,---,0.00,VWS V14.01,2013-07-16 21:00:00,
2013-07-16 16:30:00,91.0,72.6,30.19,SE,135,3.0,9.0,55,0.00,,---,0.00,VWS V14.01,2013-07-16 21:30:00,
2013-07-16 17:00:00,91.7,72.2,30.19,SSE,158,3.0,7.0,53,0.00,,---,0.00,VWS V14.01,2013-07-16 22:00:00,
2013-07-16 17:30:00,91.9,72.9,30.19,SE,135,2.0,8.0,54,0.00,,---,0.00,VWS V14.01,2013-07-16 22:30:00,
2013-07-16 18:00:00,90.9,71.4,30.18,SE,135,2.0,10.0,53,0.00,,---,0.00,VWS V14.01,2013-07-16 23:00:00,
2013-07-16 18:30:00,91.3,72.3,30.18,SE,135,2.0,5.0,54,0.00,,---,0.00,VWS V14.01,2013-07-16 23:30:00,
2013-07-16 19:00:00,90.5,72.7,30.18,SE,135,1.0,5.0,56,0.00,,---,0.00,VWS V14.01,2013-07-17 00:00:00,
2013-07-16 19:30:00,89.4,73.7,30.18,ESE,112,0.0,3.0,60,0.00,,---,0.00,VWS V14.01,2013-07-17 00:30:00,
2013-07-16 20:00:00,87.1,73.4,30.19,SE,135,1.0,3.0,64,0.00,,---,0.00,VWS V14.01,2013-07-17 01:00:00,
2013-07-16 20:30:00,85.3,73.6,30.19,SE,135,0.0,2.0,68,0.00,,---,0.00,VWS V14.01,2013-07-17 01:30:00,
2013-07-16 21:00:00,83.5,73.5,30.20,SSW,202,0.0,1.0,72,0.00,,---,0.00,VWS V14.01,2013-07-17 02:00:00,
2013-07-16 21:30:00,82.4,73.7,30.21,SSW,202,0.0,0.0,75,0.00,,---,0.00,VWS V14.01,2013-07-17 02:30:00,
2013-07-16 22:00:00,81.7,73.8,30.21,SE,135,0.0,1.0,77,0.00,,---,0.00,VWS V14.01,2013-07-17 03:00:00,
2013-07-16 22:30:00,80.8,73.3,30.22,SE,135,0.0,0.0,78,0.00,,---,0.00,VWS V14.01,2013-07-17 03:30:00,
2013-07-16 23:00:00,79.8,73.1,30.23,SE,135,0.0,1.0,80,0.00,,---,0.00,VWS V14.01,2013-07-17 04:00:00,
2013-07-16 23:30:00,79.3,73.0,30.23,SE,135,0.0,1.0,81,0.00,,---,0.00,VWS V14.01,2013-07-17 04:30:00,